Regional Weather Roundup
Issued by NWS Charleston, SC

Current Version | Previous Version | Text Only | Print | Product List | Glossary Off
Versions: 1 2 3 4 5 6 7 8 9 10 11 12 13 14 15 16 17 18 19 20 21 22 23 24 25 26 27 28 29 30 31 32 33 34 35 36 37 38 39 40 41 42 43 44 45 46 47 48 49 50
000 ASUS42 KCHS 090327 RWRCHS REGIONAL WEATHER ROUNDUP NATIONAL WEATHER SERVICE CHARLESTON SC 1000 PM EST THU DEC 08 2016 NOTE: "FAIR" INDICATES FEW OR NO CLOUDS BELOW 12,000 FEET WITH NO SIGNIFICANT WEATHER AND/OR OBSTRUCTIONS TO VISIBILITY. NOT ALL STATIONS ARE QUALITY CONTROLLED. USE DATA WITH CAUTION... ESPECIALLY DEWPOINT OBSERVATIONS. SCZ027-030-031-034>040-042>050-090400- ...SOUTHEAST SOUTH CAROLINA... CITY SKY/WX TMP DP RH WIND PRES REMARKS N CHARLESTON MOCLDY 50 34 54 N10 30.23R WATERFRONT PRK N/A 54 42 64 NW8 30.22R MOUNT PLEASANT FAIR 52 45 76 N8 30.23S JOHNS ISLAND FAIR 50 37 62 NW6 30.24R PINOPOLIS N/A 54 39 58 N15 30.16R MONCKS CORNER MOCLDY 50 32 50 N7 30.25R SUMMERVILLE FAIR 48 30 49 NW6 30.26S BEAUFORT MCAS PTCLDY 52 37 56 N9 30.25R BEAUFORT ARPT FAIR 50 34 53 N14 30.25R HILTON HEAD IS PTCLDY 52 41 66 NW12G20 30.25S WALTERBORO PTCLDY 46 34 61 N5 30.27S ALLENDALE FAIR 45 34 65 CALM 30.27S ...SOUTHERN MIDLANDS AND PEE DEE... CITY SKY/WX TMP DP RH WIND PRES REMARKS GEORGETOWN NOT AVBL KINGSTREE FAIR 45 34 65 NW3 30.25S ORANGEBURG CLOUDY 46 29 51 NW3 30.27R BARNWELL NOT AVBL AIKEN FAIR 41 32 70 NW6 30.31S MANNING FAIR 46 30 53 NW3 30.26S COLUMBIA CLOUDY 45 25 45 CALM 30.27R SUMTER CLOUDY 44 28 53 NW6 30.24R FLORENCE MOCLDY 46 26 45 N8 30.24R MYRTLE BEACH CLEAR 48 30 49 N12 30.25R N MYRTLE BEACH CLOUDY 45 32 60 CALM 30.23R $$ GAZ063-065-086>088-099>101-113>116-118-119-134>141-150-090400- ...SOUTHEAST GEORGIA... CITY SKY/WX TMP DP RH WIND PRES REMARKS SAVANNAH ARPT PTCLDY 50 28 42 NW16 30.26R HUNTER AAF PTCLDY 51 36 55 NW15 30.23R FORT STEWART PTCLDY 49 26 39 NW15 30.25R STATESBORO PTCLDY 45 30 56 N7 30.28S SYLVANIA PTCLDY N/A N/A N/A NW6 30.29S CLAXTON FAIR 47 30 53 W6 30.29S ...CSRA...CENTRAL AND FAR SOUTHEAST GEORGIA... CITY SKY/WX TMP DP RH WIND PRES REMARKS THOMSON CLOUDY 44 26 49 NW5 30.34S AUGUSTA-BUSH MOCLDY 45 23 42 NW8 30.29R AUGUSTA-DANIEL CLOUDY 45 20 36 NW8 30.29R SWAINSBORO FAIR 41 28 60 NW6 30.31R VIDALIA PTCLDY 46 32 57 N9G16 30.30S EASTMAN FAIR 43 12 27 NW3 30.35S HAZLEHURST FAIR 47 26 43 NW6 30.30R ALMA CLOUDY 49 28 44 NW13G20 30.29R WAYCROSS PTCLDY 51 33 50 N9 30.29R JESUP FAIR 52 32 46 N9G21 30.29R BAXLEY FAIR 50 32 50 N9G18 30.30R BRUNSWICK PTCLDY 54 37 54 NW5 30.27R SAINT SIMONS MOCLDY 55 35 47 NW10 30.24R $$ SCZ027-028-034-036>038-045-046-048>050-GAZ119-141-090400- ...LAKE AND SUPPLEMENTAL COASTAL OBSERVATIONS... STATION/POSITION TIME TEMP WIND PRES WAVE SWELL AIR SEA DIR/SP/G HT/PER HT/PER/DIR (UTC) (F) (DEG/KT/KT) (MB) (FT/S) (FT/S/D) WINYAH BAY 0245 49 340/ 4 1023.0S LAKE MURRAY 0250 42 350/ 1/ 4 1024.7R ACE BASIN NERRS 0245 51 340/ 4 1024.0R FORT PULASKI 0300 52 62 330/ 12/ 15 1024.4 SAPELO ISLAND 0300 53 330/ 10 1024.0 $$ ANZ835-935-AMZ111-154-330-350-352-354-370-450-454-472-090400- ...C-MAN AND BUOY OBSERVATIONS... STATION/POSITION TIME TEMP WIND PRES WAVE SWELL AIR SEA DIR/SP/G HT/PER HT/PER/DIR (UTC) (F) (DEG/KT/KT) (MB) (FT/S) (FT/S/D) BUOY 41004 0250 59 73 350/ 21/ 25 1021.6R 4/ 4 2/ 40/ 9 BUOY 41008 0250 58 64 330/ 21/ 25 1023.1R 3/ 4 2/130/10 FOLLY BEACH CMAN 0300 52 330/ 7/ 11 1023.9R CAPERS NEARSHORE 0308 54 61 350/ 14/ 17 1023.6R FRIPP NEARSHORE 0308 55 62 350/ 19/ 25 1023.7R STATION/POSITION TIME TEMP WIND PRES WAVE SWELL AIR SEA DIR/SP/G HT/PER HT/PER/DIR (UTC) (F) (DEG/KT/KT) (MB) (FT/S) (FT/S/D) 5E ST. MARYS GA 0300 65 N/A 3/ 4 FRYING PAN BUOY 0310 55 73 340/ 21/ 27 1022.5 BUOY 41025 0250 53 77 330/ 23/ 27 1020.0R 5/ 5 2/ 50/ 9 CAPE LOOKOUT NC 0300 48 320/ 17/ 19 1021.5R BUOY 41002 0250 73 74 300/ 17/ 19 1017.3S 5/ 5 3/ 40/ 8 BUOY 41010 NOT AVBL ST AUGUSTINE FL 0300 60 67 340/ 13/ 15 1023.8S $$

USA.gov is the U.S. government's official web portal to all federal, state and local government web resources and services.